DMSP 5D-2 F13 DEB, 40673

Orbit data source: Space-Track

DMSP 5D-2 F13 DEB, 40673 is space debris in SSO originally from a launch on Fri, 24 Mar 1995 UTC launched from the Air Force Western Test Range (AFWTR). Debris objects in space refer to the collection of defunct objects orbiting the Earth. Examples of debris include non-operational satellites, rocket bodies, and fragments generated from explosions, collisions, or faulty payload assembly.

Loading next visibility...
Identifier
40673, 1995-015FM
Orbit
SSO
Last TLE update
2 days ago
Origin
Manufacturer
Unknown
Mission
Spacecraft
Bus & Motor
Unknown
Mass
Unknown
Launch date (UTC)
1995-03-24 (30 years ago)
Launch vehicle
Unknown
Launch site
Air Force Western Test Range (AFWTR)
Object type
Payload
Rocket body
Debris
Shape & HBR
Unknown
Radar Cross Section
Small (<0.1 m²)

Expand to show TLE details & history

TLE from 2 days ago
0 DMSP 5D-2 F13 DEB
1 40673U 95015FM  25180.27831794  .00000218  00000-0  11779-3 0  9996
2 40673  98.7100 195.7694 0022624 331.5313  28.4628 14.22253984530562
Epoch: 2025-06-29T06:40Z
TLE epoch observation values (Epoch: 2025-06-29T06:40:46.67Z)
Latitude
0.00006°
Longitude
177.97016°
Altitude
806.351 km
Speed
7.458 km/s
True Right ascension
13h 03m 04s
True Declination
0° 00' 00"
Sunlit
Object was in daylight at epoch
Visualization orbit readout
Latitude
77.58442°
Longitude
43.74069°
Altitude
841.948 km
Speed
7.433 km/s
Apparent Right ascension
05h 35m 14s
Apparent Declination
25° 08' 33"
Sunlit
Object is in daylight
Visualization observer readout
Local Sidereal Time
18:02:54
Azimuth
6.887° NNE
Elevation
-24.623°
Doppler factor
1
Orbital elements
Apogee altitude
831.169 km
Perigee altitude
798.622 km
Semi-major axis
7,193.033 km
Eccentricity
0.00226
Inclination
98.71°
RAAN
195.7694°
Arg. of periapsis
331.5313°
True anomaly
Unknown
Mean anomaly
28.4628°
Eccentric anomaly
Unknown
Mean motion
3.55775 °/min
Orbital period
101.19 mins
BSTAR
0.00011779
Loading maneuver chart data...
Loading SW <> Apogee altitude chart data...

DMSP 5D-2 F13 DEB Visibility forecast

Observer location: undefined°, undefined°

Span
Click to sort rows by Start time (UTC) header in descending order
Start Az.
Max El. time (UTC)
Max El. Az.
Max El.
End time (UTC)
End Az.
9 mins2025-07-01 13:18:06.684Z34.445° NE2025-07-01 13:22:06.684Z95.177° ESE31.995°2025-07-01 13:27:06.684Z165.756° S
7 mins2025-07-01 14:59:06.684Z338.079° N2025-07-01 15:02:06.684Z292.69° NW24.532°2025-07-01 15:06:06.684Z240.66° WSW
8 mins2025-07-02 00:40:06.684Z143.696° SSE2025-07-02 00:43:06.684Z82.09° E40.481°2025-07-02 00:48:06.684Z355.271° N
4 mins2025-07-02 02:22:06.684Z247.508° W2025-07-02 02:24:06.684Z274.032° WNW15.74°2025-07-02 02:26:06.684Z298.572° NW
|